Aberdeen, United Kingdom

7:15 PM GMT on February 22, 2017 (GMT +0000)
Dyce

Weather History for EGPD - November, 2013

Change the Weather History Date:

Thursday, November 7, 2013

  Actual Average Record
Temperature  
Mean Temperature 40 °F -  
Max Temperature 46 °F 46 °F 59 °F (2004)
Min Temperature 33 °F 35 °F 28 °F (2011)
Degree Days  
Heating Degree Days 26    
Moisture  
Dew Point 35 °F    
Average Humidity 78    
Maximum Humidity 93    
Minimum Humidity 59    
Precipitation  
Precipitation 0.03 in 0.10 in - ()
Sea Level Pressure  
Sea Level Pressure 29.32 in    
Wind  
Wind Speed 7 mph ()    
Max Wind Speed 18 mph    
Max Gust Speed 23 mph    
Visibility 6.2 miles    
Events Rain    
Averages and records for this station are not official NWS values.
T = Trace of Precipitation, MM = Missing Value Source: Averaged Metar Reports

Daily Weather History Graph

Daily Weather History Graph

Search for Another Location

Airport or City:

Trip Planner

Search our weather history database for the weather conditions in past years. The results will help you decide how hot, cold, wet, or windy it might be!

Date:

Astronomy

Nov. 07, 2013 Rise Set
Actual Time 7:33 AM GMT 4:10 PM GMT
Civil Twilight 6:51 AM GMT 4:52 PM GMT
Nautical Twilight 6:05 AM GMT 5:39 PM GMT
Astronomical Twilight 5:20 AM GMT 6:23 PM GMT
Moon 11:43 AM GMT (11/7) 7:53 PM GMT (11/7)
Length of Visible Light 10h 01m
Length of Day
8h 36m
Waxing Crescent, 20% of the Moon is Illuminated
Nov 7
Waxing Crescent
Nov 10
First Quarter
Nov 17
Full
Nov 25
Last Quarter
Dec 3
New

Hourly Weather History & Observations

Time (GMT) Temp. Windchill Dew Point Humidity Pressure Visibility Wind Dir Wind Speed Gust Speed Precip Events Conditions
12:00 AM 40 °F - 33 °F 69% 29.27 in 34 mi West 8.1 mph - -   Partly Cloudy
12:20 AM 37.4 °F 32.8 °F 32.0 °F 81% 29.27 in 6.2 mi WSW 5.8 mph - N/A   Unknown
12:50 AM 37.4 °F 34.9 °F 32.0 °F 81% 29.27 in - WSW 3.5 mph - N/A   Clear
1:20 AM 37.4 °F 34.9 °F 32.0 °F 81% 29.27 in 6.2 mi Variable 3.5 mph - N/A   Unknown
1:50 AM 33.8 °F 29.6 °F 32.0 °F 93% 29.27 in - SSW 4.6 mph - N/A   Clear
2:20 AM 37.4 °F 32.8 °F 32.0 °F 81% 29.30 in 6.2 mi WSW 5.8 mph - N/A   Unknown
2:50 AM 37.4 °F 31.4 °F 32.0 °F 81% 29.30 in - WSW 8.1 mph - N/A   Clear
3:00 AM 40 °F - 32 °F 63% 29.31 in 31 mi West 5.8 mph - -  
3:20 AM 37.4 °F 32.1 °F 32.0 °F 81% 29.30 in 6.2 mi West 6.9 mph - N/A   Unknown
3:50 AM 39.2 °F 32.5 °F 32.0 °F 75% 29.30 in 6.2 mi West 10.4 mph - N/A   Unknown
4:20 AM 39.2 °F 33.0 °F 32.0 °F 75% 29.33 in 6.2 mi West 9.2 mph - N/A   Unknown
4:50 AM 37.4 °F 31.4 °F 30.2 °F 75% 29.33 in - WSW 8.1 mph - N/A   Clear
5:20 AM 37.4 °F 32.1 °F 32.0 °F 81% 29.33 in - West 6.9 mph - N/A   Clear
5:50 AM 35.6 °F 30.7 °F 30.2 °F 81% 29.33 in - SW 5.8 mph - N/A   Clear
6:20 AM 35.6 °F 30.7 °F 30.2 °F 81% 29.36 in - South 5.8 mph - N/A   Clear
6:50 AM 35.6 °F 31.7 °F 32.0 °F 87% 29.36 in - SW 4.6 mph - N/A   Clear
7:20 AM 37.4 °F 34.9 °F 32.0 °F 81% 29.36 in - Variable 3.5 mph - N/A   Clear
7:50 AM 35.6 °F 29.9 °F 30.2 °F 81% 29.36 in - SSW 6.9 mph - N/A   Clear
8:20 AM 35.6 °F 29.9 °F 30.2 °F 81% 29.36 in - South 6.9 mph - N/A   Clear
8:50 AM 37.4 °F 32.8 °F 32.0 °F 81% 29.36 in - South 5.8 mph - N/A   Clear
9:00 AM 38 °F - 31 °F 67% 29.38 in 25 mi South 9.2 mph - -   Partly Cloudy
9:20 AM 37.4 °F 32.1 °F 32.0 °F 81% 29.36 in - South 6.9 mph - N/A   Clear
9:50 AM 39.2 °F 34.2 °F 33.8 °F 81% 29.36 in - South 6.9 mph - N/A   Clear
10:20 AM 41.0 °F 35.2 °F 35.6 °F 81% 29.36 in - South 9.2 mph - N/A   Clear
10:50 AM 41.0 °F 34.3 °F 35.6 °F 81% 29.36 in - SSE 11.5 mph - N/A   Clear
11:20 AM 44.6 °F 38.8 °F 35.6 °F 71% 29.36 in 6.2 mi SSW 11.5 mph - N/A   Partly Cloudy
11:50 AM 44.6 °F 38.1 °F 35.6 °F 71% 29.33 in 6.2 mi SW 13.8 mph - N/A   Scattered Clouds
12:00 PM 45 °F - 35 °F 59% 29.35 in 25 mi SW 18.4 mph - -   Partly Cloudy
12:20 PM 44.6 °F 38.1 °F 37.4 °F 76% 29.33 in 6.2 mi SW 13.8 mph - N/A   Scattered Clouds
12:50 PM 44.6 °F 37.8 °F 37.4 °F 76% 29.33 in 6.2 mi SW 15.0 mph - N/A   Partly Cloudy
1:20 PM 46.4 °F 42.4 °F 37.4 °F 71% 29.33 in 6.2 mi South 8.1 mph - N/A   Partly Cloudy
1:50 PM 46.4 °F 42.4 °F 37.4 °F 71% 29.33 in 6.2 mi SSE 8.1 mph - N/A   Partly Cloudy
2:20 PM 46.4 °F 42.4 °F 37.4 °F 71% 29.30 in 6.2 mi South 8.1 mph 19.6 mph N/A   Scattered Clouds
2:50 PM 44.6 °F 39.2 °F 37.4 °F 76% 29.30 in 6.2 mi South 10.4 mph - N/A   Scattered Clouds
3:00 PM 45 °F - 36 °F 62% 29.31 in 25 mi South 11.5 mph - -   Scattered Clouds
3:20 PM 44.6 °F 39.7 °F 37.4 °F 76% 29.33 in 6.2 mi South 9.2 mph - N/A   Scattered Clouds
3:50 PM 44.6 °F 38.4 °F 35.6 °F 71% 29.30 in 6.2 mi SSW 12.7 mph - N/A   Mostly Cloudy
4:20 PM 44.6 °F 38.8 °F 37.4 °F 76% 29.30 in 6.2 mi SSW 11.5 mph - N/A   Scattered Clouds
4:50 PM 44.6 °F 38.8 °F 37.4 °F 76% 29.30 in 6.2 mi SSW 11.5 mph 23.0 mph N/A Rain Light Rain Showers
5:20 PM 42.8 °F 36.6 °F 37.4 °F 81% 29.27 in 6.2 mi SW 11.5 mph - N/A   Scattered Clouds
5:50 PM 41.0 °F 35.2 °F 37.4 °F 87% 29.27 in 6.2 mi South 9.2 mph - N/A   Partly Cloudy
6:00 PM 42 °F - 38 °F 79% 29.28 in 28 mi SSW 11.5 mph - - Rain Rain
6:20 PM 41.0 °F 35.2 °F 37.4 °F 87% 29.27 in 6.2 mi South 9.2 mph - N/A   Partly Cloudy
6:50 PM 42.8 °F 37.5 °F 37.4 °F 81% 29.27 in 6.2 mi SSW 9.2 mph - N/A   Partly Cloudy
7:20 PM 42.8 °F 35.8 °F 39.2 °F 87% 29.27 in 6.2 mi SW 13.8 mph - N/A   Partly Cloudy
7:50 PM 42.8 °F 37.0 °F 39.2 °F 87% 29.27 in 6.2 mi SW 10.4 mph - N/A   Partly Cloudy
8:20 PM 42.8 °F 38.0 °F 37.4 °F 81% 29.27 in - SW 8.1 mph - N/A   Clear
8:50 PM 41.0 °F 38.0 °F 37.4 °F 87% 29.30 in - NW 4.6 mph - N/A   Clear
9:00 PM 43 °F - 36 °F 69% 29.31 in 22 mi West 4.6 mph - -  
9:20 PM 41.0 °F 36.4 °F 35.6 °F 81% 29.30 in - SW 6.9 mph - N/A   Clear
9:50 PM 41.0 °F 38.0 °F 35.6 °F 81% 29.33 in - WSW 4.6 mph - N/A   Clear
10:20 PM 42.8 °F - 35.6 °F 76% 29.33 in - Variable 2.3 mph - N/A   Clear
10:50 PM 41.0 °F 37.1 °F 33.8 °F 76% 29.33 in - WSW 5.8 mph - N/A   Clear
11:20 PM 44.6 °F 40.2 °F 35.6 °F 71% 29.33 in 6.2 mi SW 8.1 mph - N/A   Unknown
11:50 PM 44.6 °F 38.4 °F 35.6 °F 71% 29.33 in - WSW 12.7 mph - N/A   Clear